AAL2089 KFAT-KDFW

Flight info

Callsign AAL2089
Flight time N/A
Altitude 37000
Route NTELL CABAB Q174 SKANN HOUZZ BLD J72 TURKI VKTRY2
Aircraft B738/M-SDE2E3FGHIRWXY/LB1

Departure

Time N/A
Airport Fresno Yosemite International Airport (KFAT)

Arrival

Time 2026-05-04 03:49
Airport Dallas Fort Worth International Airport (KDFW)
Time Latitude Longitude Altitude Speed Heading
2026-05-04 02:47 34.88726 -105.57481 36973 ft 518 kts 99°
2026-05-04 02:47 34.88054 -105.52384 36975 ft 518 kts 99°
2026-05-04 02:48 34.86906 -105.43718 36962 ft 518 kts 99°
2026-05-04 02:48 34.85751 -105.35048 36956 ft 519 kts 99°
2026-05-04 02:49 34.84592 -105.26390 36929 ft 519 kts 99°
2026-05-04 02:49 34.83424 -105.17716 36920 ft 519 kts 100°
2026-05-04 02:50 34.82251 -105.09059 36916 ft 519 kts 100°
2026-05-04 02:50 34.81071 -105.00389 36914 ft 519 kts 100°
2026-05-04 02:51 34.79884 -104.91720 36915 ft 519 kts 100°
2026-05-04 02:51 34.78893 -104.84518 36931 ft 519 kts 100°
2026-05-04 02:52 34.77695 -104.75858 36942 ft 519 kts 100°
2026-05-04 02:52 34.76492 -104.67202 36956 ft 519 kts 100°
2026-05-04 02:53 34.75283 -104.58550 36939 ft 519 kts 100°
2026-05-04 02:53 34.74068 -104.49904 36916 ft 519 kts 100°
2026-05-04 02:54 34.72848 -104.41270 36883 ft 518 kts 100°
2026-05-04 02:54 34.71623 -104.32646 36855 ft 518 kts 100°
2026-05-04 02:55 34.69776 -104.19727 36831 ft 516 kts 100°
2026-05-04 02:56 34.68541 -104.11139 36838 ft 516 kts 100°
2026-05-04 02:56 34.67301 -104.02565 36850 ft 515 kts 100°
2026-05-04 02:57 34.66054 -103.93991 36838 ft 515 kts 100°
2026-05-04 02:57 34.64804 -103.85435 36846 ft 514 kts 100°
2026-05-04 02:58 34.63549 -103.76893 36845 ft 514 kts 100°
2026-05-04 02:58 34.62287 -103.68341 36853 ft 514 kts 100°
2026-05-04 02:59 34.61019 -103.59794 36884 ft 515 kts 100°
2026-05-04 02:59 34.59744 -103.51240 36916 ft 515 kts 100°
2026-05-04 03:00 34.58461 -103.42677 36947 ft 516 kts 100°
2026-05-04 03:00 34.57170 -103.34103 36971 ft 517 kts 100°
2026-05-04 03:01 34.55872 -103.25525 36980 ft 518 kts 100°
2026-05-04 03:01 34.54565 -103.16928 37002 ft 519 kts 100°
2026-05-04 03:02 34.53251 -103.08326 37018 ft 519 kts 101°
2026-05-04 03:02 34.51928 -102.99713 37013 ft 520 kts 101°
2026-05-04 03:03 34.50608 -102.91151 37018 ft 520 kts 101°
2026-05-04 03:03 34.49299 -102.82534 36995 ft 520 kts 98°
2026-05-04 03:04 34.48337 -102.73859 36979 ft 519 kts 96°
2026-05-04 03:04 34.47518 -102.65157 36947 ft 519 kts 96°
2026-05-04 03:05 34.46668 -102.56469 36945 ft 519 kts 96°
2026-05-04 03:05 34.45772 -102.47785 36942 ft 519 kts 96°
2026-05-04 03:06 34.44858 -102.39109 36939 ft 519 kts 96°
2026-05-04 03:06 34.43938 -102.30441 36929 ft 519 kts 96°
2026-05-04 03:07 34.43015 -102.21783 36928 ft 518 kts 96°
2026-05-04 03:07 34.42089 -102.13139 36923 ft 518 kts 96°
2026-05-04 03:08 34.41163 -102.04551 36929 ft 517 kts 96°
2026-05-04 03:08 34.40225 -101.95918 36932 ft 517 kts 97°
2026-05-04 03:09 34.39278 -101.87250 36951 ft 516 kts 97°
2026-05-04 03:09 34.38330 -101.78637 36959 ft 516 kts 97°
2026-05-04 03:10 34.37376 -101.70030 36969 ft 516 kts 97°
2026-05-04 03:10 34.36423 -101.61485 36962 ft 516 kts 97°
2026-05-04 03:11 34.35451 -101.52824 36958 ft 516 kts 97°
2026-05-04 03:11 34.34488 -101.44292 36941 ft 516 kts 97°
2026-05-04 03:12 34.33509 -101.35681 36921 ft 516 kts 97°
2026-05-04 03:12 34.32525 -101.27083 36908 ft 516 kts 97°
2026-05-04 03:13 34.31535 -101.18477 36913 ft 517 kts 97°
2026-05-04 03:13 34.30538 -101.09861 36917 ft 517 kts 97°
2026-05-04 03:14 34.29533 -101.01250 36911 ft 517 kts 97°
2026-05-04 03:14 34.28520 -100.92636 36917 ft 518 kts 97°
2026-05-04 03:15 34.27503 -100.84028 36911 ft 518 kts 97°
2026-05-04 03:15 34.26479 -100.75409 36915 ft 518 kts 97°
2026-05-04 03:16 34.25449 -100.66797 36914 ft 518 kts 97°
2026-05-04 03:16 34.24412 -100.58176 36931 ft 518 kts 97°
2026-05-04 03:17 34.23368 -100.49552 36945 ft 518 kts 97°
2026-05-04 03:17 34.22320 -100.40943 36951 ft 518 kts 97°
2026-05-04 03:18 34.21265 -100.32324 36954 ft 518 kts 97°
2026-05-04 03:18 34.20091 -100.23739 36939 ft 519 kts 106°
2026-05-04 03:19 34.17677 -100.15560 36940 ft 517 kts 112°
2026-05-04 03:19 34.15056 -100.07471 36931 ft 517 kts 112°
2026-05-04 03:20 34.12524 -99.99343 36933 ft 517 kts 111°
2026-05-04 03:20 34.10051 -99.91187 36933 ft 517 kts 111°
2026-05-04 03:21 34.07582 -99.83029 36930 ft 517 kts 111°
2026-05-04 03:21 34.05113 -99.74921 36914 ft 506 kts 111°
2026-05-04 03:21 34.03912 -99.70990 36913 ft 492 kts 111°
2026-05-04 03:22 34.02744 -99.67173 36907 ft 479 kts 111°
2026-05-04 03:22 34.01604 -99.63451 36906 ft 466 kts 111°
2026-05-04 03:22 34.00495 -99.59837 36912 ft 457 kts 111°
2026-05-04 03:23 33.98270 -99.52601 36957 ft 466 kts 111°
2026-05-04 03:23 33.95978 -99.45173 36956 ft 479 kts 111°
2026-05-04 03:24 33.93641 -99.37662 36953 ft 485 kts 111°
2026-05-04 03:24 33.91287 -99.30114 36924 ft 476 kts 111°
2026-05-04 03:25 33.88977 -99.22714 36766 ft 469 kts 111°
2026-05-04 03:25 33.87820 -99.19017 36041 ft 476 kts 111°
2026-05-04 03:25 33.86637 -99.15244 35121 ft 489 kts 111°
2026-05-04 03:25 33.85414 -99.11347 34084 ft 505 kts 111°
2026-05-04 03:26 33.84168 -99.07378 33352 ft 509 kts 111°
2026-05-04 03:26 33.82920 -99.03407 32981 ft 504 kts 111°
2026-05-04 03:26 33.81688 -98.99492 32676 ft 497 kts 111°
2026-05-04 03:26 33.80469 -98.95620 32310 ft 493 kts 111°
2026-05-04 03:27 33.79257 -98.91780 31886 ft 490 kts 111°
2026-05-04 03:27 33.78050 -98.87960 31465 ft 488 kts 111°
2026-05-04 03:27 33.76849 -98.84164 31057 ft 485 kts 111°
2026-05-04 03:27 33.75651 -98.80382 30684 ft 482 kts 111°
2026-05-04 03:28 33.74461 -98.76630 30303 ft 479 kts 111°
2026-05-04 03:28 33.73272 -98.72900 29905 ft 476 kts 111°
2026-05-04 03:28 33.72087 -98.69204 29529 ft 472 kts 111°
2026-05-04 03:28 33.70914 -98.65549 29153 ft 466 kts 111°
2026-05-04 03:29 33.69754 -98.61940 28771 ft 462 kts 111°
2026-05-04 03:29 33.68606 -98.58355 28388 ft 457 kts 111°
2026-05-04 03:29 33.67481 -98.54807 28015 ft 453 kts 111°
2026-05-04 03:29 33.66367 -98.51283 27654 ft 448 kts 111°
2026-05-04 03:30 33.65282 -98.47852 27305 ft 444 kts 111°
2026-05-04 03:30 33.64192 -98.44410 26949 ft 439 kts 111°
2026-05-04 03:30 33.63094 -98.40951 26580 ft 435 kts 111°
2026-05-04 03:30 33.62033 -98.37616 26240 ft 431 kts 112°
2026-05-04 03:31 33.60971 -98.34279 25908 ft 427 kts 112°
2026-05-04 03:31 33.59915 -98.30968 25570 ft 423 kts 112°
2026-05-04 03:31 33.58869 -98.27691 25239 ft 419 kts 112°
2026-05-04 03:31 33.57833 -98.24446 24907 ft 415 kts 112°
2026-05-04 03:32 33.56805 -98.21232 24589 ft 411 kts 112°
2026-05-04 03:32 33.55785 -98.18050 24282 ft 407 kts 112°
2026-05-04 03:32 33.54772 -98.14905 23969 ft 403 kts 112°
2026-05-04 03:32 33.53767 -98.11789 23677 ft 399 kts 112°
2026-05-04 03:33 33.52772 -98.08707 23330 ft 395 kts 112°
2026-05-04 03:33 33.51784 -98.05650 22938 ft 392 kts 112°
2026-05-04 03:33 33.50803 -98.02613 22547 ft 389 kts 113°
2026-05-04 03:33 33.49830 -97.99605 22174 ft 386 kts 113°
2026-05-04 03:34 33.48864 -97.96620 21811 ft 383 kts 113°
2026-05-04 03:34 33.47903 -97.93657 21445 ft 380 kts 113°
2026-05-04 03:34 33.46951 -97.90717 21096 ft 377 kts 113°
2026-05-04 03:34 33.46010 -97.87797 20741 ft 375 kts 113°
2026-05-04 03:35 33.45078 -97.84896 20394 ft 372 kts 113°
2026-05-04 03:35 33.44152 -97.82018 20052 ft 369 kts 113°
2026-05-04 03:35 33.43233 -97.79162 19726 ft 367 kts 113°
2026-05-04 03:35 33.42317 -97.76320 19399 ft 364 kts 113°
2026-05-04 03:36 33.41409 -97.73507 19081 ft 361 kts 113°
2026-05-04 03:36 33.40507 -97.70714 18767 ft 359 kts 113°
2026-05-04 03:36 33.39609 -97.67937 18454 ft 356 kts 113°
2026-05-04 03:36 33.38719 -97.65189 18258 ft 350 kts 114°
2026-05-04 03:37 33.37628 -97.62668 18147 ft 335 kts 128°
2026-05-04 03:37 33.36243 -97.60491 17784 ft 326 kts 131°
2026-05-04 03:37 33.34861 -97.58341 17214 ft 326 kts 130°
2026-05-04 03:37 33.33498 -97.56184 16688 ft 324 kts 130°
2026-05-04 03:38 33.32159 -97.54033 16206 ft 321 kts 129°
2026-05-04 03:38 33.30838 -97.51895 15732 ft 318 kts 129°
2026-05-04 03:38 33.29972 -97.50490 15416 ft 316 kts 129°
2026-05-04 03:38 33.28672 -97.48383 14945 ft 314 kts 129°
2026-05-04 03:39 33.27472 -97.46220 14456 ft 314 kts 116°
2026-05-04 03:39 33.27017 -97.43673 13989 ft 315 kts 94°
2026-05-04 03:39 33.26915 -97.41079 13519 ft 311 kts 94°
2026-05-04 03:39 33.26797 -97.38502 12980 ft 309 kts 95°
2026-05-04 03:40 33.26673 -97.35952 12501 ft 307 kts 95°
2026-05-04 03:40 33.26545 -97.33421 12048 ft 303 kts 95°
2026-05-04 03:40 33.26416 -97.30916 11564 ft 301 kts 95°
2026-05-04 03:40 33.26285 -97.28431 11120 ft 298 kts 95°
2026-05-04 03:41 33.26155 -97.25976 10709 ft 295 kts 95°
2026-05-04 03:41 33.26027 -97.23567 10452 ft 285 kts 95°
2026-05-04 03:41 33.25886 -97.21234 10128 ft 280 kts 95°
2026-05-04 03:41 33.25734 -97.18929 9694 ft 278 kts 96°
2026-05-04 03:42 33.25572 -97.16630 9247 ft 277 kts 97°
2026-05-04 03:42 33.25355 -97.14359 8794 ft 273 kts 106°
2026-05-04 03:42 33.24522 -97.12367 8365 ft 269 kts 135°
2026-05-04 03:42 33.23193 -97.10845 8173 ft 262 kts 142°
2026-05-04 03:43 33.21822 -97.09417 7941 ft 261 kts 142°
2026-05-04 03:43 33.20456 -97.08007 7722 ft 259 kts 143°
2026-05-04 03:43 33.19092 -97.06599 7433 ft 259 kts 143°
2026-05-04 03:43 33.17708 -97.05233 7158 ft 256 kts 151°
2026-05-04 03:44 33.16065 -97.04645 6917 ft 244 kts 186°
2026-05-04 03:44 33.14431 -97.05043 6721 ft 239 kts 194°
2026-05-04 03:44 33.12785 -97.05292 6548 ft 237 kts 185°
2026-05-04 03:44 33.11172 -97.05345 6451 ft 225 kts 185°
2026-05-04 03:45 33.09571 -97.05377 5674 ft 235 kts 183°
2026-05-04 03:45 33.07944 -97.05387 5023 ft 237 kts 183°
2026-05-04 03:45 33.06279 -97.05394 4282 ft 241 kts 182°
2026-05-04 03:45 33.04598 -97.05401 3601 ft 241 kts 182°
2026-05-04 03:46 33.02999 -97.05408 3387 ft 224 kts 182°
2026-05-04 03:46 33.01519 -97.05416 3266 ft 202 kts 183°
2026-05-04 03:46 33.00185 -97.05422 3087 ft 179 kts 184°
2026-05-04 03:46 32.99034 -97.05468 3006 ft 154 kts 181°
2026-05-04 03:47 32.97996 -97.05401 2478 ft 153 kts 182°
2026-05-04 03:47 32.96949 -97.05409 2054 ft 146 kts 181°
2026-05-04 03:47 32.95963 -97.05381 1630 ft 139 kts 183°
2026-05-04 03:47 32.94995 -97.05404 1311 ft 139 kts 182°
2026-05-04 03:48 32.94033 -97.05438 1047 ft 135 kts 180°
2026-05-04 03:48 32.93107 -97.05446 923 ft 133 kts 180°
2026-05-04 03:48 32.92172 -97.05458 758 ft 136 kts 180°
2026-05-04 03:48 32.91605 -97.05460 657 ft 135 kts 180°
2026-05-04 03:49 32.91141 -97.05466 626 ft 127 kts 180°
2026-05-04 03:49 32.90365 -97.05471 620 ft 93 kts 180°
2026-05-04 03:49 32.89872 -97.05473 618 ft 37 kts 180°
2026-05-04 03:49 32.89671 -97.05445 619 ft 20 kts 165°
2026-05-04 03:50 32.89549 -97.05377 627 ft 19 kts 151°
2026-05-04 03:50 32.89481 -97.05331 618 ft 7 kts 150°
2026-05-04 03:50 32.89438 -97.05302 615 ft 7 kts 150°
2026-05-04 03:50 32.89393 -97.05283 622 ft 7 kts 174°